Location: Bayview
(38.0070°N, 122.3188°W)
Time: 23:13:20
(UTC+00:00)

Hubble Space Telescope - Visible Passes

Search period start: 30 September 2022 00:00
Search period end: 10 October 2022 00:00
Orbit: 531 x 535 km, 28.5° (Epoch: 30 September)

Date Brightness Start Highest point End Pass type
(mag) Time Alt. Az. Time Alt. Az. Time Alt. Az.
30 Sep 2.5 03:16:01 10° SW 03:19:03 20° S 03:20:17 18° SSE visible
01 Oct 2.7 03:03:48 10° SW 03:06:43 19° S 03:08:43 14° SSE visible
02 Oct 2.9 02:51:37 10° SW 02:54:24 18° S 02:57:10 10° SSE visible
03 Oct 3.0 02:39:30 10° SW 02:42:03 16° SSW 02:44:37 10° SSE visible
04 Oct 3.2 02:27:25 10° SW 02:29:41 14° SSW 02:31:57 10° SSE visible
05 Oct 3.3 02:15:29 10° SW 02:17:19 13° SSW 02:19:09 10° S visible
